ZHB YPJT-YPJT

Flight info

Callsign ZHB
Flight time 0h 15m
Altitude 5000
Route FREM DCT CTE DCT PCTY DCT HKE DCT OBC DCT POWR
Aircraft C172/L-SFG/C

Departure

Time 2026-05-06 10:43
Airport Perth Jandakot Airport (YPJT)

Arrival

Time 2026-05-06 10:58
Airport Perth Jandakot Airport (YPJT)
Time Latitude Longitude Altitude Speed Heading
2026-05-06 10:21 -32.09220 115.88259 91 ft 0 kts 355°
2026-05-06 10:23 -32.09217 115.88259 91 ft 0 kts 358°
2026-05-06 10:30 -32.09216 115.88259 91 ft 0 kts 348°
2026-05-06 10:39 -32.09219 115.88241 92 ft 7 kts 192°
2026-05-06 10:39 -32.09261 115.88270 91 ft 7 kts 140°
2026-05-06 10:39 -32.09303 115.88326 90 ft 10 kts 126°
2026-05-06 10:39 -32.09355 115.88328 89 ft 8 kts 231°
2026-05-06 10:40 -32.09361 115.88292 90 ft 11 kts 222°
2026-05-06 10:40 -32.09438 115.88179 95 ft 24 kts 229°
2026-05-06 10:40 -32.09543 115.88008 95 ft 27 kts 231°
2026-05-06 10:40 -32.09645 115.87850 97 ft 22 kts 233°
2026-05-06 10:41 -32.09727 115.87706 97 ft 20 kts 233°
2026-05-06 10:41 -32.09803 115.87586 96 ft 17 kts 233°
2026-05-06 10:41 -32.09865 115.87482 94 ft 15 kts 230°
2026-05-06 10:41 -32.09919 115.87392 93 ft 12 kts 229°
2026-05-06 10:42 -32.09965 115.87320 94 ft 11 kts 234°
2026-05-06 10:42 -32.10024 115.87323 93 ft 10 kts 121°
2026-05-06 10:42 -32.10131 115.87606 101 ft 62 kts 114°
2026-05-06 10:42 -32.10375 115.88127 271 ft 78 kts 123°
2026-05-06 10:43 -32.10614 115.88694 512 ft 74 kts 114°
2026-05-06 10:43 -32.10823 115.89257 661 ft 80 kts 101°
2026-05-06 10:43 -32.10645 115.89913 748 ft 93 kts 53°
2026-05-06 10:44 -32.09413 115.90552 1110 ft 106 kts 25°
2026-05-06 10:44 -32.08704 115.90579 1397 ft 111 kts 338°
2026-05-06 10:44 -32.08312 115.89696 1398 ft 135 kts 290°
2026-05-06 10:44 -32.08091 115.88659 1492 ft 127 kts 289°
2026-05-06 10:45 -32.07864 115.87644 1369 ft 128 kts 291°
2026-05-06 10:45 -32.07625 115.86636 1345 ft 127 kts 290°
2026-05-06 10:45 -32.07420 115.85619 1490 ft 129 kts 278°
2026-05-06 10:45 -32.07675 115.84617 1503 ft 129 kts 241°
2026-05-06 10:46 -32.07926 115.83628 1509 ft 128 kts 271°
2026-05-06 10:46 -32.07717 115.82597 1420 ft 126 kts 297°
2026-05-06 10:46 -32.07382 115.81672 1458 ft 123 kts 299°
2026-05-06 10:46 -32.07035 115.80776 1523 ft 121 kts 301°
2026-05-06 10:47 -32.06654 115.79881 1472 ft 124 kts 304°
2026-05-06 10:47 -32.06221 115.79017 1424 ft 124 kts 307°
2026-05-06 10:47 -32.05766 115.78169 1451 ft 119 kts 310°
2026-05-06 10:47 -32.05226 115.77440 1462 ft 113 kts 329°
2026-05-06 10:48 -32.04569 115.76987 1505 ft 112 kts 341°
2026-05-06 10:48 -32.03872 115.76611 1592 ft 107 kts 344°
2026-05-06 10:48 -32.03181 115.76266 1610 ft 107 kts 348°
2026-05-06 10:48 -32.02487 115.75979 1540 ft 111 kts 352°
2026-05-06 10:49 -32.01743 115.75765 1550 ft 109 kts 356°
2026-05-06 10:49 -32.01004 115.75608 1592 ft 106 kts
2026-05-06 10:49 -32.00254 115.75530 1537 ft 110 kts
2026-05-06 10:49 -31.99542 115.75686 1496 ft 103 kts 35°
2026-05-06 10:50 -31.99041 115.76251 1486 ft 99 kts 59°
2026-05-06 10:50 -31.98705 115.76936 1465 ft 96 kts 63°
2026-05-06 10:50 -31.98400 115.77645 1463 ft 93 kts 67°
2026-05-06 10:50 -31.98179 115.78372 1422 ft 99 kts 73°
2026-05-06 10:51 -31.98012 115.79127 1457 ft 95 kts 74°
2026-05-06 10:51 -31.97855 115.79905 1429 ft 95 kts 78°
2026-05-06 10:51 -31.97754 115.80648 1446 ft 95 kts 80°
2026-05-06 10:51 -31.97660 115.81450 1449 ft 97 kts 81°
2026-05-06 10:52 -31.97576 115.82197 1554 ft 92 kts 78°
2026-05-06 10:52 -31.97454 115.82962 1528 ft 95 kts 78°
2026-05-06 10:52 -31.97334 115.83715 1575 ft 94 kts 78°
2026-05-06 10:52 -31.97187 115.84485 1574 ft 97 kts 73°
2026-05-06 10:53 -31.96957 115.85214 1680 ft 93 kts 64°
2026-05-06 10:53 -31.96709 115.85900 1517 ft 107 kts 72°
2026-05-06 10:53 -31.96512 115.86712 1470 ft 102 kts 74°
2026-05-06 10:53 -31.96310 115.87474 1544 ft 91 kts 73°
2026-05-06 10:54 -31.96044 115.88189 1467 ft 102 kts 56°
2026-05-06 10:54 -31.95525 115.88757 1440 ft 98 kts 36°
2026-05-06 10:54 -31.94911 115.89105 1344 ft 100 kts 41°
2026-05-06 10:54 -31.94411 115.89675 1358 ft 97 kts 52°
2026-05-06 10:55 -31.94091 115.90313 1404 ft 92 kts 66°
2026-05-06 10:55 -31.93853 115.91041 1350 ft 96 kts 71°
2026-05-06 10:55 -31.93636 115.91779 1284 ft 95 kts 69°
2026-05-06 10:55 -31.93344 115.92491 1164 ft 97 kts 64°
2026-05-06 10:56 -31.93013 115.93162 1098 ft 96 kts 60°
2026-05-06 10:56 -31.92590 115.93799 959 ft 100 kts 54°
2026-05-06 10:56 -31.92122 115.94385 918 ft 94 kts 52°
2026-05-06 10:56 -31.91706 115.94930 925 ft 85 kts 52°
2026-05-06 10:57 -31.91322 115.95459 834 ft 86 kts 59°
2026-05-06 10:57 -31.91076 115.96060 806 ft 81 kts 79°
2026-05-06 10:57 -31.91095 115.96740 634 ft 89 kts 102°
2026-05-06 10:57 -31.91394 115.97255 639 ft 76 kts 149°
2026-05-06 10:58 -31.91968 115.97124 439 ft 88 kts 198°
2026-05-06 10:58 -31.92474 115.96916 309 ft 69 kts 179°
2026-05-06 10:58 -31.92965 115.96807 91 ft 73 kts 181°
2026-05-06 10:58 -31.93345 115.96683 49 ft 43 kts 180°
2026-05-06 10:59 -31.93701 115.96636 91 ft 59 kts 191°
2026-05-06 10:59 -31.94135 115.96443 152 ft 70 kts 195°
2026-05-06 10:59 -31.94594 115.96304 252 ft 76 kts 188°
2026-05-06 10:59 -31.95205 115.96120 313 ft 97 kts 188°
2026-05-06 11:00 -31.95924 115.95901 421 ft 106 kts 191°
2026-05-06 11:00 -31.96628 115.95617 599 ft 113 kts 207°
2026-05-06 11:00 -31.97329 115.95119 714 ft 118 kts 213°
2026-05-06 11:00 -31.98026 115.94718 939 ft 111 kts 187°
2026-05-06 11:01 -31.98786 115.94744 1004 ft 113 kts 153°
2026-05-06 11:01 -31.99320 115.95317 1041 ft 101 kts 114°
2026-05-06 11:01 -31.99678 115.95971 1018 ft 94 kts 115°
2026-05-06 11:01 -31.99918 115.96641 1003 ft 85 kts 82°
2026-05-06 11:02 -31.99500 115.97154 957 ft 94 kts 32°
2026-05-06 11:02 -31.99160 115.97710 942 ft 88 kts 88°
2026-05-06 11:02 -31.99123 115.98418 933 ft 85 kts 89°
2026-05-06 11:02 -31.99098 115.99141 872 ft 90 kts 86°
2026-05-06 11:03 -31.99058 115.99853 958 ft 84 kts 86°
2026-05-06 11:03 -31.98932 116.00541 931 ft 92 kts 60°
2026-05-06 11:03 -31.98320 116.00862 924 ft 106 kts 19°
2026-05-06 11:03 -31.97866 116.01420 953 ft 94 kts 80°
2026-05-06 11:04 -31.97901 116.02202 995 ft 97 kts 101°
2026-05-06 11:04 -31.98034 116.02956 1077 ft 94 kts 101°
2026-05-06 11:04 -31.98234 116.03681 1051 ft 97 kts 104°
2026-05-06 11:04 -31.98454 116.04374 1130 ft 88 kts 103°
2026-05-06 11:05 -31.98496 116.05040 1168 ft 78 kts 56°
2026-05-06 11:05 -31.97992 116.05354 1104 ft 93 kts 23°
2026-05-06 11:05 -31.97378 116.05619 1370 ft 82 kts 29°
2026-05-06 11:05 -31.96793 116.05846 1349 ft 96 kts 28°
2026-05-06 11:06 -31.96165 116.06129 1369 ft 99 kts 25°
2026-05-06 11:06 -31.95507 116.06348 1524 ft 97 kts 21°
2026-05-06 11:06 -31.94812 116.06503 1570 ft 102 kts 14°
2026-05-06 11:06 -31.94116 116.06332 1625 ft 114 kts 349°
2026-05-06 11:07 -31.93360 116.05917 1573 ft 125 kts 342°
2026-05-06 11:07 -31.92610 116.05422 1562 ft 122 kts 336°
2026-05-06 11:07 -31.91973 116.04760 1546 ft 123 kts 322°
2026-05-06 11:07 -31.91468 116.03929 1477 ft 126 kts 309°
2026-05-06 11:08 -31.91100 116.02967 1333 ft 131 kts 303°
2026-05-06 11:08 -31.90723 116.01995 1234 ft 130 kts 301°
2026-05-06 11:08 -31.90336 116.01071 1208 ft 122 kts 306°
2026-05-06 11:08 -31.89960 116.00175 1124 ft 128 kts 302°
2026-05-06 11:09 -31.89582 115.99262 1144 ft 119 kts 306°
2026-05-06 11:09 -31.89261 115.98362 1144 ft 118 kts 276°
2026-05-06 11:09 -31.89686 115.97595 1034 ft 122 kts 197°
2026-05-06 11:09 -31.90449 115.97465 994 ft 104 kts 179°
2026-05-06 11:10 -31.91130 115.97322 960 ft 95 kts 182°
2026-05-06 11:10 -31.91704 115.97141 763 ft 73 kts 189°
2026-05-06 11:10 -31.92204 115.96996 433 ft 76 kts 179°
2026-05-06 11:10 -31.92686 115.96878 281 ft 70 kts 181°
2026-05-06 11:11 -31.93161 115.96749 91 ft 66 kts 182°
2026-05-06 11:11 -31.93488 115.96620 50 ft 41 kts 197°
2026-05-06 11:11 -31.93771 115.96619 70 ft 35 kts 141°
2026-05-06 11:11 -31.94051 115.96760 92 ft 66 kts 194°
2026-05-06 11:12 -31.94512 115.96328 156 ft 97 kts 206°